FW7517 Weather Reports


Display with metric or nautical units.
time (UTC)temp
F
wind
direction
speed
MPH
gust
MPH
rain 1hr
in
rain 24hr
in
rain mn
in
humidity
%
barometer
mb
20260509091255 47 145 3.0 6.0 0.00 0.00 0.00 60 1000.0
20260509090749 47 157 3.0 6.0 0.00 0.00 0.00 60 1000.0
20260509090223 47 157 4.0 4.0 0.00 0.00 0.00 60 999.5
20260509085656 47 148 3.0 4.0 0.00 0.00 0.00 60 1000.0
20260509085349 47 152 2.0 3.0 0.00 0.00 0.00 60 1000.0
20260509084627 47 150 2.0 3.0 0.00 0.00 0.00 61 1000.0
20260509084344 47 156 2.0 4.0 0.00 0.00 0.00 61 1000.0
20260509083556 47 156 1.0 4.0 0.00 0.00 0.00 60 1000.3
20260509083050 48 162 2.0 3.0 0.00 0.00 0.00 60 1000.0
20260509082742 48 141 3.0 4.0 0.00 0.00 0.00 59 1000.0
20260509082008 48 154 3.0 4.0 0.00 0.00 0.00 60 1000.3
20260509081503 48 146 3.0 4.0 0.00 0.00 0.00 61 1000.3
20260509080938 47 158 1.0 2.0 0.00 0.00 0.00 63 1000.7
20260509080430 47 156 2.0 2.0 0.00 0.00 0.00 63 1000.7
20260509075920 47 126 1.0 2.0 0.00 0.00 0.00 64 1001.0
20260509075416 47 132 1.0 3.0 0.00 0.00 0.00 64 1001.0
20260509074915 47 137 2.0 3.0 0.00 0.00 0.00 64 1000.7
20260509074629 47 150 2.0 3.0 0.00 0.00 0.00 64 1000.7
20260509073858 47 143 2.0 3.0 0.00 0.00 0.00 63 1001.0
20260509073655 47 143 3.0 3.0 0.00 0.00 0.00 64 1001.3
20260509072325 47 146 2.0 3.0 0.00 0.00 0.00 65 1001.3
20260509071822 47 150 1.0 2.0 0.00 0.00 0.00 66 1001.3
20260509071309 46 157 1.0 1.0 0.00 0.00 0.00 68 1001.3
20260509070801 46 157 1.0 2.0 0.00 0.00 0.00 67 1001.7
20260509070258 46 157 0.0 2.0 0.00 0.00 0.00 68 1001.7
20260509065734 46 157 2.0 3.0 0.00 0.00 0.00 66 1001.7
20260509065231 46 145 1.0 6.0 0.00 0.00 0.00 68 1001.7
20260509064724 46 158 2.0 6.0 0.00 0.00 0.00 67 1002.0
20260509064155 46 184 2.0 3.0 0.00 0.00 0.00 66 1002.3
20260509063630 46 144 0.0 2.0 0.00 0.00 0.00 65 1002.0
20260509063337 46 140 1.0 3.0 0.00 0.00 0.00 63 1002.0
20260509062608 46 164 1.0 3.0 0.00 0.00 0.00 64 1002.0
20260509062539 46 136 1.0 2.0 0.00 0.00 0.00 64 1002.3
20260509061540 46 134 1.0 2.0 0.00 0.00 0.00 64 1002.0
20260509061024 46 135 1.0 2.0 0.00 0.00 0.00 63 1002.3
20260509060517 46 139 0.0 2.0 0.00 0.00 0.00 64 1002.7
20260509060004 46 137 2.0 2.0 0.00 0.00 0.00 63 1002.7
20260509055710 46 148 1.0 2.0 0.00 0.00 0.00 64 1002.7
20260509054930 47 144 1.0 2.0 0.00 0.00 0.00 63 1003.0
20260509054418 47 137 1.0 2.0 0.00 0.00 0.00 63 1003.0
20260509054104 46 137 0.0 2.0 0.00 0.00 0.00 64 1003.0
20260509053338 47 137 0.0 3.0 0.00 0.00 0.00 63 1003.0
20260509052834 47 134 3.0 3.0 0.00 0.00 0.00 61 1003.0
20260509052542 47 137 1.0 2.0 0.00 0.00 0.00 62 1003.4
20260509051753 47 137 1.0 2.0 0.00 0.00 0.00 62 1003.4
20260509051250 47 141 1.0 2.0 0.00 0.00 0.00 62 1003.4
20260509050737 47 137 0.0 2.0 0.00 0.00 0.00 64 1003.4
20260509050220 47 130 1.0 3.0 0.00 0.00 0.00 62 1003.4
20260509045656 47 144 2.0 3.0 0.00 0.00 0.00 60 1003.4
20260509045130 47 134 3.0 3.0 0.00 0.00 0.00 61 1003.4
20260509044625 47 149 2.0 3.0 0.00 0.00 0.00 62 1003.4
20260509044334 47 149 1.0 3.0 0.00 0.00 0.00 63 1003.4
20260509043608 47 162 2.0 4.0 0.00 0.00 0.00 62 1003.4
20260509043050 47 136 4.0 4.0 0.00 0.00 0.00 61 1003.4
20260509042523 47 145 2.0 4.0 0.00 0.00 0.00 62 1003.7
20260509042220 47 158 4.0 4.0 0.00 0.00 0.00 62 1003.7
20260509041451 47 142 2.0 4.0 0.00 0.00 0.00 63 1003.7
20260509040926 47 144 3.0 4.0 0.00 0.00 0.00 63 1003.7
20260509040428 47 146 2.0 4.0 0.00 0.00 0.00 63 1003.7
20260509035858 47 139 2.0 4.0 0.00 0.00 0.00 64 1004.0
20260509035346 47 135 2.0 3.0 0.00 0.00 0.00 65 1004.0
20260509034822 46 134 2.0 3.0 0.00 0.00 0.00 66 1004.0
20260509034543 46 133 2.0 3.0 0.00 0.00 0.00 66 1004.0
20260509033802 46 129 2.0 3.0 0.00 0.00 0.00 66 1004.0
20260509033514 46 129 1.0 3.0 0.00 0.00 0.00 66 1004.4
20260509032731 46 120 1.0 2.0 0.00 0.00 0.00 66 1004.4
20260509032220 46 84 1.0 1.0 0.00 0.00 0.00 65 1004.7
20260509031721 46 83 0.0 1.0 0.00 0.00 0.00 65 1004.4
20260509031215 47 82 0.0 1.0 0.00 0.00 0.00 65 1004.7
20260509030705 47 82 1.0 2.0 0.00 0.00 0.00 64 1004.7
20260509030158 47 80 0.0 4.0 0.00 0.00 0.00 64 1004.7
20260509025641 47 87 0.0 4.0 0.00 0.00 0.00 64 1005.1
20260509025357 47 105 1.0 3.0 0.00 0.00 0.00 65 1004.7
20260509024626 47 133 1.0 3.0 0.00 0.00 0.00 65 1005.1
20260509024103 47 127 2.0 3.0 0.00 0.00 0.00 64 1004.7
20260509023552 46 138 2.0 3.0 0.00 0.00 0.00 65 1005.1
20260509023050 46 134 2.0 2.0 0.00 0.00 0.00 65 1005.1
20260509022549 46 130 2.0 3.0 0.00 0.00 0.00 65 1005.1
20260509022020 46 116 1.0 3.0 0.00 0.00 0.00 65 1005.1
20260509021455 46 104 2.0 3.0 0.00 0.00 0.00 65 1005.1
20260509021150 45 64 1.0 3.0 0.00 0.00 0.00 66 1005.1
20260509020425 42 75 1.0 1.0 0.00 0.00 0.00 70 1005.1
20260509015920 41 63 0.0 0.0 0.00 0.00 0.00 79 1005.1
20260509015353 41 63 0.0 0.0 0.00 0.00 0.00 74 1005.1
20260509014849 41 63 0.0 0.0 0.00 0.00 0.00 76 1005.1
20260509014323 41 63 0.0 0.0 0.00 0.00 0.00 81 1005.1
20260509013800 41 63 0.0 0.0 0.00 0.00 0.00 80 1004.7
20260509013250 41 63 0.0 0.0 0.00 0.00 0.00 80 1005.1
20260509012740 42 63 0.0 0.0 0.00 0.00 0.00 75 1005.1
20260509012228 42 63 0.0 0.0 0.00 0.00 0.00 74 1005.1
20260509011923 43 63 0.0 0.0 0.00 0.00 0.00 71 1005.1
20260509011152 44 63 0.0 0.0 0.00 0.00 0.00 72 1004.7
20260509010624 44 63 0.0 0.0 0.00 0.00 0.00 67 1004.7
20260509010116 45 63 0.0 0.0 0.00 0.00 0.00 68 1004.7
20260509005601 46 62 0.0 0.0 0.00 0.00 0.00 68 1004.7
20260509005053 47 61 0.0 0.0 0.00 0.00 0.00 62 1005.1
20260509004530 47 61 0.0 2.0 0.00 0.00 0.00 60 1004.7
20260509004020 48 62 0.0 3.0 0.00 0.00 0.00 59 1004.7
20260509003521 48 58 0.0 3.0 0.00 0.00 0.00 59 1005.1
20260509003240 49 59 0.0 2.0 0.00 0.00 0.00 57 1004.7
20260509002724 49 74 1.0 3.0 0.00 0.00 0.00 56 1004.7
20260509001958 50 61 1.0 6.0 0.00 0.00 0.00 56 1005.1
20260509001450 50 72 1.0 6.0 0.00 0.00 0.00 55 1005.1
20260509000926 51 84 4.0 6.0 0.00 0.00 0.00 54 1005.1
20260509000426 52 350 1.0 2.0 0.00 0.00 0.00 55 1004.7
20260508235922 51 24 1.0 2.0 0.00 0.00 0.00 55 1005.1
20260508235631 52 2 0.0 1.0 0.00 0.00 0.00 55 1004.7
20260508234907 51 20 0.0 2.0 0.00 0.00 0.00 55 1005.1
20260508234359 52 11 1.0 3.0 0.00 0.00 0.00 55 1004.4
20260508233850 52 31 1.0 7.0 0.00 0.00 0.00 53 1004.7
20260508233338 53 78 4.0 4.0 0.00 0.00 0.00 51 1004.7
20260508232823 55 331 2.0 3.0 0.00 0.00 0.00 46 1005.1
20260508232253 56 333 0.0 2.0 0.00 0.00 0.00 45 1005.1
20260508231728 56 339 2.0 4.0 0.00 0.00 0.00 46 1004.7
20260508231224 57 346 1.0 7.0 0.00 0.00 0.00 42 1004.7
20260508230709 57 327 2.0 8.0 0.00 0.00 0.00 44 1005.1
20260508230159 58 348 2.0 8.0 0.00 0.00 0.00 40 1004.7
20260508225652 58 335 5.0 8.0 0.00 0.00 0.00 41 1005.1
20260508225126 58 328 2.0 7.0 0.00 0.00 0.00 41 1005.1
20260508224626 58 355 2.0 8.0 0.00 0.00 0.00 40 1005.1
20260508224101 58 6 4.0 10.0 0.00 0.00 0.00 40 1005.1
20260508223554 58 356 6.0 11.0 0.00 0.00 0.00 39 1005.1
20260508223029 58 340 6.0 9.0 0.00 0.00 0.00 40 1005.1
20260508222522 58 317 5.0 10.0 0.00 0.00 0.00 43 1005.1
20260508222008 58 323 8.0 10.0 0.00 0.00 0.00 39 1005.1
20260508221455 58 359 5.0 9.0 0.00 0.00 0.00 38 1005.1
20260508220938 57 358 3.0 10.0 0.00 0.00 0.00 41 1005.1
20260508220424 57 356 7.0 10.0 0.00 0.00 0.00 40 1005.5
20260508220136 57 338 6.0 13.0 0.00 0.00 0.00 41 1005.1
20260508215402 58 10 11.0 13.0 0.00 0.00 0.00 39 1005.1
20260508214849 57 288 7.0 10.0 0.00 0.00 0.00 41 1005.1
20260508214327 58 314 4.0 16.0 0.00 0.00 0.00 41 1005.1
20260508213819 58 283 9.0 16.0 0.00 0.00 0.00 41 1005.1
20260508213307 58 345 9.0 11.0 0.00 0.00 0.00 41 1005.1
20260508212800 58 308 4.0 11.0 0.00 0.00 0.00 40 1005.1
20260508212258 58 339 6.0 15.0 0.00 0.00 0.00 40 1005.1
20260508211756 59 291 6.0 15.0 0.00 0.00 0.00 41 1005.1
20260508211706 59 343 4.0 13.0 0.00 0.00 0.00 41 1005.1
20260508210723 60 282 4.0 19.0 0.00 0.00 0.00 41 1005.1
20260508210436 59 287 5.0 19.0 0.00 0.00 0.00 41 1005.1
20260508205702 59 338 11.0 16.0 0.00 0.00 0.00 41 1005.1
20260508205139 59 307 11.0 17.0 0.00 0.00 0.00 39 1005.1
20260508204849 59 304 6.0 17.0 0.00 0.00 0.00 40 1005.1
20260508204059 60 325 6.0 16.0 0.00 0.00 0.00 39 1005.5
20260508203529 60 348 9.0 11.0 0.00 0.00 0.00 40 1005.5
20260508203021 60 237 5.0 15.0 0.00 0.00 0.00 45 1005.1
20260508202735 60 274 9.0 15.0 0.00 0.00 0.00 39 1005.1
20260508201958 59 310 4.0 19.0 0.00 0.00 0.00 43 1005.5
20260508201715 60 103 2.0 19.0 0.00 0.00 0.00 44 1005.1
20260508201147 59 285 6.0 10.0 0.00 0.00 0.00 40 1005.5
20260508200426 58 260 2.0 13.0 0.00 0.00 0.00 42 1005.1
20260508200126 58 336 4.0 13.0 0.00 0.00 0.00 42 1005.5
20260508195352 59 247 4.0 9.0 0.00 0.00 0.00 38 1005.5
20260508194850 58 293 6.0 15.0 0.00 0.00 0.00 47 1005.8
20260508194350 60 289 3.0 15.0 0.00 0.00 0.00 36 1005.1
20260508193821 61 357 6.0 17.0 0.00 0.00 0.00 37 1005.5
20260508193255 58 327 12.0 17.0 0.00 0.00 0.00 35 1005.5
20260508193009 60 300 9.0 15.0 0.00 0.00 0.00 36 1005.5
20260508192223 58 314 8.0 10.0 0.00 0.00 0.00 38 1006.2
20260508191653 56 8 2.0 6.0 0.00 0.00 0.00 41 1005.8
20260508191128 58 343 4.0 9.0 0.00 0.00 0.00 50 1006.2
20260508190628 58 144 2.0 10.0 0.00 0.00 0.00 37 1005.8
20260508190106 57 311 8.0 10.0 0.00 0.00 0.00 45 1006.2
20260508185824 58 299 3.0 11.0 0.00 0.00 0.00 50 1005.8
20260508185307 60 280 3.0 11.0 0.00 0.00 0.00 38 1006.2
20260508184758 58 3 3.0 15.0 0.00 0.00 0.00 39 1006.2
20260508184028 59 305 9.0 15.0 0.00 0.00 0.00 37 1006.2
20260508183501 58 286 3.0 14.0 0.00 0.00 0.00 40 1006.2
20260508182951 57 352 10.0 13.0 0.00 0.00 0.00 40 1006.2
20260508182449 57 302 4.0 15.0 0.00 0.00 0.00 41 1006.2
20260508182209 58 327 10.0 15.0 0.00 0.00 0.00 40 1006.2
20260508181419 58 312 4.0 15.0 0.00 0.00 0.00 43 1006.5
20260508180857 58 309 6.0 15.0 0.00 0.00 0.00 41 1006.5
20260508180552 56 260 5.0 13.0 0.00 0.00 0.00 44 1006.5
20260508175823 56 276 4.0 11.0 0.00 0.00 0.00 44 1006.5
20260508175519 56 308 2.0 9.0 0.00 0.00 0.00 44 1006.8
20260508174720 56 336 8.0 10.0 0.00 0.00 0.00 43 1006.8
20260508174156 56 316 1.0 14.0 0.00 0.00 0.00 44 1006.8
20260508173629 56 328 8.0 14.0 0.00 0.00 0.00 44 1006.8
20260508173123 56 277 4.0 14.0 0.00 0.00 0.00 43 1006.8
20260508172609 56 219 2.0 15.0 0.00 0.00 0.00 42 1007.2
20260508172051 56 316 11.0 15.0 0.00 0.00 0.00 43 1007.2
20260508171539 57 317 6.0 11.0 0.00 0.00 0.00 42 1007.2
20260508171024 56 192 5.0 11.0 0.00 0.00 0.00 42 1007.2
20260508170935 55 258 5.0 9.0 0.00 0.00 0.00 44 1007.2
20260508165928 57 336 5.0 11.0 0.00 0.00 0.00 43 1007.2
20260508165422 55 295 4.0 13.0 0.00 0.00 0.00 45 1007.5
20260508164908 54 320 6.0 13.0 0.00 0.00 0.00 47 1007.5
20260508164359 54 296 4.0 14.0 0.00 0.00 0.00 46 1007.5
20260508163853 55 353 6.0 16.0 0.00 0.00 0.00 46 1007.9
20260508163327 55 238 6.0 16.0 0.00 0.00 0.00 45 1007.5
20260508162826 53 329 6.0 16.0 0.00 0.00 0.00 46 1007.9
20260508162306 54 335 9.0 16.0 0.00 0.00 0.00 47 1007.5
20260508161752 55 242 5.0 9.0 0.00 0.00 0.00 47 1007.9
20260508161250 54 337 4.0 8.0 0.00 0.00 0.00 47 1007.9
20260508160732 55 240 3.0 11.0 0.00 0.00 0.00 46 1007.9
20260508160229 55 259 4.0 11.0 0.00 0.00 0.00 48 1007.9
20260508155728 54 197 5.0 14.0 0.00 0.00 0.00 48 1007.9
20260508155158 53 283 7.0 14.0 0.00 0.00 0.00 48 1007.9
20260508154700 53 191 5.0 14.0 0.00 0.00 0.00 49 1007.9
20260508154146 53 230 4.0 14.0 0.00 0.00 0.00 50 1007.9
20260508154109 53 334 8.0 13.0 0.00 0.00 0.00 51 1007.9
20260508153110 52 302 4.0 11.0 0.00 0.00 0.00 51 1007.9
20260508152601 53 311 4.0 9.0 0.00 0.00 0.00 53 1008.2
20260508152311 52 192 4.0 9.0 0.00 0.00 0.00 52 1008.2
20260508151531 51 3 5.0 13.0 0.00 0.00 0.00 55 1008.2
20260508151020 52 264 9.0 14.0 0.00 0.00 0.00 53 1008.2
20260508150519 53 345 2.0 10.0 0.00 0.00 0.00 55 1008.2
20260508145956 51 325 0.0 10.0 0.00 0.00 0.00 56 1008.2
20260508145510 51 298 3.0 9.0 0.00 0.00 0.00 59 1008.5
20260508144409 51 322 3.0 7.0 0.00 0.00 0.00 59 1008.5
20260508143902 50 213 3.0 7.0 0.00 0.00 0.00 61 1008.5
20260508143339 49 318 1.0 8.0 0.00 0.00 0.00 62 1008.5
20260508142824 51 301 5.0 8.0 0.00 0.00 0.00 61 1008.5
20260508142259 51 334 6.0 8.0 0.00 0.00 0.00 64 1008.5
20260508141729 49 348 2.0 6.0 0.00 0.00 0.00 65 1008.9
20260508141221 49 295 2.0 6.0 0.00 0.00 0.00 67 1008.9
20260508140709 49 232 1.0 6.0 0.00 0.00 0.00 66 1008.5
20260508140159 50 188 2.0 6.0 0.00 0.00 0.00 66 1008.5
20260508135653 49 334 1.0 6.0 0.00 0.00 0.00 66 1008.5
20260508135127 49 239 2.0 7.0 0.00 0.00 0.00 66 1008.9
20260508134626 48 281 2.0 8.0 0.00 0.00 0.00 69 1008.9
20260508134330 47 252 2.0 8.0 0.00 0.00 0.00 70 1008.9
20260508133551 47 205 2.0 4.0 0.00 0.00 0.00 73 1008.9
20260508133050 46 249 2.0 4.0 0.00 0.00 0.00 72 1008.9
20260508133034 46 201 2.0 7.0 0.00 0.00 0.00 73 1008.9
20260508132028 45 212 2.0 7.0 0.00 0.00 0.00 75 1008.9
20260508132012 44 306 2.0 4.0 0.00 0.00 0.00 75 1009.2
20260508131026 44 320 1.0 4.0 0.00 0.00 0.00 77 1009.2
20260508130500 43 302 1.0 6.0 0.00 0.00 0.00 78 1009.2
20260508125952 42 238 2.0 6.0 0.00 0.00 0.00 78 1008.9
20260508125422 42 204 3.0 3.0 0.00 0.00 0.00 80 1009.2
20260508124923 40 198 3.0 3.0 0.00 0.00 0.00 82 1009.2
20260508124402 40 303 2.0 2.0 0.00 0.00 0.00 83 1009.2
20260508123852 39 300 0.0 1.0 0.00 0.00 0.00 85 1009.6
20260508123547 38 307 1.0 2.0 0.00 0.00 0.00 86 1009.6
20260508122826 38 215 1.0 3.0 0.00 0.00 0.00 88 1009.2
20260508122319 38 288 2.0 2.0 0.00 0.00 0.00 89 1009.6
20260508121756 37 325 0.0 0.0 0.00 0.00 0.00 90 1009.6
20260508121230 36 333 0.0 0.0 0.00 0.00 0.00 94 1009.6
20260508120722 35 333 0.0 0.0 0.00 0.00 0.00 95 1009.2
20260508120208 35 304 0.0 1.0 0.00 0.00 0.00 97 1009.2
20260508115702 34 343 0.0 1.0 0.00 0.00 0.00 99 1009.2
20260508115138 33 347 0.0 0.0 0.00 0.00 0.00 99 1009.2
20260508114846 32 347 0.0 0.0 0.00 0.00 0.00 99 1009.2
20260508114059 31 348 0.0 0.0 0.00 0.00 0.00 99 1009.2
20260508113244 30 348 0.0 0.0 0.00 0.00 0.00 99 1009.2
20260508112509 30 348 0.0 0.0 0.00 0.00 0.00 99 1008.9
20260508112443 29 348 0.0 0.0 0.00 0.00 0.00 99 1008.9
20260508111716 29 348 0.0 0.0 0.00 0.00 0.00 99 1009.2
20260508110926 29 348 0.0 0.0 0.00 0.00 0.00 99 1009.2
20260508110426 28 348 0.0 0.0 0.00 0.00 0.00 99 1008.5
20260508105922 28 348 0.0 0.0 0.00 0.00 0.00 99 1008.9
20260508105412 28 348 0.0 0.0 0.00 0.00 0.00 99 1009.2
20260508105125 27 348 0.0 0.0 0.00 0.00 0.00 99 1008.9
20260508104607 27 349 0.0 0.0 0.00 0.00 0.00 99 1008.9
20260508104051 26 349 0.0 0.0 0.00 0.00 0.00 99 1008.9
20260508103545 26 349 0.0 0.0 0.00 0.00 0.00 99 1008.9
20260508102826 26 349 0.0 0.0 0.00 0.00 0.00 99 1008.9
20260508102259 26 347 0.0 0.0 0.00 0.00 0.00 99 1008.5
20260508101746 26 345 0.0 0.0 0.00 0.00 0.00 99 1008.5
20260508101221 26 343 0.0 0.0 0.00 0.00 0.00 99 1008.5
20260508100708 26 343 0.0 0.0 0.00 0.00 0.00 99 1008.9
20260508100426 26 343 0.0 0.0 0.00 0.00 0.00 99 1008.9
20260508095652 26 343 0.0 0.0 0.00 0.00 0.00 99 1008.9
20260508095126 27 343 0.0 0.0 0.00 0.00 0.00 99 1008.9
20260508094627 27 343 0.0 0.0 0.00 0.00 0.00 99 1008.5
20260508094059 27 342 0.0 0.0 0.00 0.00 0.00 99 1008.5
20260508093815 27 332 0.0 0.0 0.00 0.00 0.00 99 1008.9
20260508093031 27 332 0.0 0.0 0.00 0.00 0.00 99 1008.9
20260508092523 27 332 0.0 0.0 0.00 0.00 0.00 99 1008.9
20260508092008 28 332 0.0 0.0 0.00 0.00 0.00 99 1008.9